sat.trackr.live / text

‹ back to catalog

STARLINK-11456 [DTC]

NORAD 62064 · 2024-217H

PAYLOAD ACTIVE UNKNOWN

§ Identity

Operator
Country
US
Launch date
2024-11-24
Launch site
AFWTR
Launch vehicle
Mass (kg)
RCS (m²)

Purposes: comms

External: N2YO · Heavens-Above · Gunter

§ Orbital elements

Epoch: 2026-09-21T06:28:09.444864Z

Period
91.74 min
Inclination
53.1579°
Eccentricity
0.0001155
Mean motion
15.69698749 rev/d
Perigee alt
359.0 km
Apogee alt
360.5 km
Semi-major
6,737.9 km
B*
9.8995e-4
RAAN
186.9655°
Arg perigee
74.1258°
Mean anomaly
285.9887°
Rev number
10,589

§ Raw data

STARLINK-11456 [DTC]1 62064U 24217H   26264.26955376  .00121049  00000+0  98995-3 0  99962 62064  53.1579 186.9655 0001155  74.1258 285.9887 15.69698749105893

JSON: /api/v1/satellites/62064 · /tle

For live sub-satellite position, see the globe view (requires WebGL).

§ Visibility from observer

Set your observer location to see the next 7 days of passes ≥ 10°. The values pass through the URL so the page stays shareable.

No JS? Fill the form by hand. The geolocation button needs JavaScript.